SQ6CZH-3 Weather Reports


time (UTC)temp
C
wind
direction
speed
KPH
gust
KPH
rain 1hr
cm
rain 24hr
cm
rain mn
cm
humidity
%
barometer
mb
20260507001939 15 285 1.6 6.4 0.36 2.21 0.79 60 1006.7
20260507000937 15 286 1.6 6.4 0.38 2.16 0.76 60 1006.5
20260506235934 15 270 1.6 3.2 0.41 2.11 0.69 60 1006.6
20260506234953 15 270 1.6 1.6 0.36 2.03 0.61 60 1006.6
20260506233930 15 237 1.6 1.6 0.36 1.98 0.56 60 1006.8
20260506232930 15 270 1.6 3.2 0.30 1.91 0.48 60 1006.5
20260506231927 15 270 1.6 4.8 0.33 1.85 0.43 60 1006.6
20260506230926 15 270 1.6 1.6 0.36 1.78 0.38 60 1006.8
20260506225923 15 270 1.6 3.2 0.28 1.70 0.28 60 1006.9
20260506224920 15 270 1.6 1.6 0.25 1.65 0.25 60 1006.8
20260506223918 15 270 1.6 1.6 0.25 1.63 0.20 60 1006.8
20260506222916 15 270 1.6 1.6 0.28 1.60 0.18 60 1006.7
20260506221914 15 270 1.6 3.2 0.25 1.52 0.10 60 1006.4
20260506220913 15 270 1.6 3.2 0.25 1.42 0.00 60 1006.2
20260506215953 15 270 1.6 1.6 0.28 1.42 1.42 60 1006.1
20260506214909 15 270 1.6 3.2 0.28 1.40 1.40 60 1006.0
20260506213906 15 213 1.6 4.8 0.25 1.37 1.37 60 1005.7
20260506212904 15 359 1.6 3.2 0.20 1.32 1.32 60 1005.8
20260506211903 15 210 1.6 4.8 0.15 1.27 1.27 59 1005.9
20260506210900 15 293 1.6 3.2 0.13 1.17 1.17 59 1006.0
20260506205900 15 297 3.2 6.4 0.20 1.14 1.14 59 1006.4
20260506204857 16 315 1.6 3.2 0.25 1.12 1.12 59 1006.2
20260506203854 16 210 1.6 1.6 0.36 1.12 1.12 59 1006.1
20260506202852 16 225 1.6 3.2 0.41 1.12 1.12 59 1005.8
20260506201911 16 191 1.6 3.2 0.43 1.09 1.09 59 1005.6
20260506200848 16 325 1.6 3.2 0.43 1.04 1.04 59 1006.2
20260506195846 16 270 1.6 3.2 0.48 0.94 0.94 59 1006.4
20260506194844 16 315 1.6 3.2 0.53 0.86 0.86 59 1006.3
20260506193842 16 270 1.6 3.2 0.53 0.74 0.74 59 1006.3
20260506192841 16 315 1.6 3.2 0.56 0.69 0.69 58 1006.2
20260506191838 16 45 3.2 6.4 0.58 0.66 0.66 58 1006.3
20260506190836 17 73 3.2 8.0 0.53 0.58 0.58 57 1006.0
20260506185834 17 241 3.2 6.4 0.43 0.46 0.46 57 1005.9
20260506184832 18 250 1.6 4.8 0.28 0.33 0.33 57 1006.0
20260506183831 18 316 3.2 6.4 0.20 0.23 0.23 56 1005.6
20260506182828 19 226 3.2 4.8 0.10 0.15 0.15 56 1005.6
20260506181826 20 231 3.2 4.8 0.03 0.05 0.05 55 1005.3
20260506180825 20 237 3.2 3.2 0.03 0.05 0.05 55 1005.3
20260506175822 20 243 3.2 4.8 0.00 0.05 0.05 54 1005.3
20260506174820 21 228 3.2 3.2 0.00 0.05 0.05 54 1005.0
20260506173818 21 223 3.2 4.8 0.00 0.03 0.03 53 1004.5
20260506172816 21 230 3.2 4.8 0.00 0.03 0.03 52 1004.2
20260506171814 22 251 3.2 6.4 0.00 0.03 0.03 51 1004.4
20260506170813 22 281 3.2 11.3 0.00 0.03 0.03 51 1004.2
20260506165851 23 259 3.2 9.7 0.00 0.03 0.03 51 1004.2
20260506164808 23 225 1.6 3.2 0.00 0.03 0.03 51 1004.0
20260506163806 23 232 1.6 4.8 0.00 0.03 0.03 51 1004.0
20260506162804 23 222 1.6 3.2 0.00 0.03 0.03 51 1004.0
20260506161803 23 229 1.6 3.2 0.00 0.03 0.03 51 1004.1
20260506160820 23 225 1.6 4.8 0.00 0.03 0.03 51 1004.3
20260506155758 23 225 1.6 3.2 0.00 0.03 0.03 51 1004.1
20260506154756 23 225 1.6 6.4 0.00 0.03 0.03 51 1004.2
20260506153756 23 237 3.2 6.4 0.00 0.03 0.03 51 1004.1
20260506152814 23 222 1.6 3.2 0.00 0.03 0.03 51 1004.3
20260506151750 23 220 1.6 4.8 0.00 0.03 0.03 51 1004.4
20260506150749 23 225 1.6 3.2 0.00 0.03 0.03 51 1004.4
20260506145747 23 220 1.6 3.2 0.00 0.03 0.03 51 1004.6
20260506144744 23 237 3.2 6.4 0.00 0.03 0.03 51 1004.7
20260506143742 23 227 3.2 9.7 0.00 0.03 0.03 52 1004.7
20260506142741 23 225 1.6 4.8 0.00 0.03 0.03 52 1004.9
20260506141738 23 225 1.6 6.4 0.00 0.03 0.03 52 1005.0
20260506140736 23 225 1.6 6.4 0.00 0.03 0.03 52 1005.0
20260506135736 24 225 3.2 6.4 0.00 0.03 0.03 52 1005.1
20260506134733 24 220 1.6 6.4 0.00 0.03 0.03 52 1005.2
20260506133750 24 218 1.6 3.2 0.00 0.03 0.03 52 1005.1
20260506132748 24 214 1.6 4.8 0.00 0.03 0.03 52 1005.2
20260506131746 24 214 1.6 4.8 0.00 0.03 0.03 52 1005.3
20260506130725 24 216 1.6 3.2 0.00 0.03 0.03 52 1005.3
20260506125744 24 228 1.6 6.4 0.00 0.03 0.03 52 1005.3
20260506124721 24 219 1.6 6.4 0.00 0.03 0.03 52 1005.2
20260506123740 24 225 1.6 6.4 0.00 0.03 0.03 52 1005.3
20260506122717 24 215 1.6 3.2 0.00 0.03 0.03 52 1005.1
20260506121715 24 242 1.6 9.7 0.00 0.03 0.03 52 1005.2
20260506120712 24 225 1.6 6.4 0.00 0.03 0.03 53 1005.3
20260506115711 25 225 1.6 3.2 0.00 0.03 0.03 53 1005.2
20260506114709 25 225 1.6 8.0 0.00 0.03 0.03 53 1005.3
20260506113706 25 270 1.6 9.7 0.00 0.03 0.03 53 1005.1
20260506112704 25 270 1.6 3.2 0.00 0.03 0.03 54 1005.1
20260506111723 23 186 1.6 6.4 0.00 0.03 0.03 55 1005.2
20260506110701 23 270 1.6 4.8 0.00 0.03 0.03 55 1005.2
20260506105658 22 225 1.6 9.7 0.00 0.03 0.03 55 1005.2
20260506104718 22 219 1.6 4.8 0.00 0.03 0.03 55 1005.2
20260506103654 22 315 3.2 9.7 0.00 0.03 0.03 55 1005.2
20260506102655 21 270 1.6 4.8 0.00 0.03 0.03 56 1005.2
20260506101650 21 227 1.6 6.4 0.00 0.03 0.03 55 1005.3
20260506100649 21 239 1.6 4.8 0.00 0.03 0.03 55 1005.4
20260506095646 21 249 1.6 6.4 0.00 0.03 0.03 55 1005.5
20260506094646 21 245 3.2 4.8 0.00 0.03 0.03 55 1005.4
20260506093642 22 220 1.6 3.2 0.00 0.03 0.03 55 1005.3
20260506092641 22 260 3.2 9.7 0.00 0.03 0.03 56 1005.2
20260506091640 21 222 1.6 3.2 0.00 0.03 0.03 56 1005.3
20260506090637 21 225 1.6 3.2 0.00 0.03 0.03 56 1005.3
20260506085635 21 235 1.6 3.2 0.00 0.03 0.03 56 1005.3
20260506084633 21 315 1.6 1.6 0.00 0.03 0.03 56 1005.2
20260506083630 21 323 1.6 3.2 0.00 0.03 0.03 57 1005.1
20260506082628 20 304 1.6 3.2 0.00 0.03 0.03 57 1005.1
20260506081626 20 270 1.6 4.8 0.00 0.03 0.03 57 1005.1
20260506080627 20 315 1.6 3.2 0.00 0.03 0.03 57 1005.3
20260506072617 18 308 1.6 4.8 0.00 0.03 0.03 58 1004.8
20260506071614 17 306 1.6 3.2 0.00 0.03 0.03 58 1004.9
20260506070612 17 308 1.6 3.2 0.00 0.03 0.03 58 1005.0
20260506061605 15 315 1.6 3.2 0.00 0.03 0.03 58 1004.8
20260506060601 15 270 1.6 3.2 0.00 0.03 0.03 58 1004.8
20260506050610 15 359 1.6 1.6 0.03 0.03 0.03 57 1004.5
20260506044546 15 53 1.6 1.6 0.03 0.03 0.03 57 1004.2
20260506043543 15 30 1.6 1.6 0.00 0.00 0.00 57 1004.0
20260506042543 15 0 1.6 1.6 0.00 0.00 0.00 57 1004.2
20260506041559 15 45 1.6 1.6 0.00 0.00 0.00 57 1004.2
20260506040536 15 37 1.6 1.6 0.00 0.00 0.00 56 1004.2
20260506035557 15 45 1.6 1.6 0.00 0.00 0.00 56 1004.2
20260506034533 15 45 1.6 1.6 0.00 0.00 0.00 56 1003.9
20260506033530 15 45 1.6 1.6 0.00 0.00 0.00 56 1003.6
20260506032530 15 18 1.6 1.6 0.00 0.00 0.00 56 1003.7
20260506031527 15 30 1.6 1.6 0.00 0.00 0.00 56 1003.5
20260506030524 15 32 1.6 1.6 0.00 0.00 0.00 56 1003.7
20260506025522 15 45 1.6 1.6 0.00 0.00 0.00 56 1003.8
20260506024521 15 45 1.6 1.6 0.00 0.00 0.00 56 1004.0
20260506023519 16 26 1.6 1.6 0.00 0.00 0.00 56 1004.3
20260506022516 16 30 1.6 1.6 0.00 0.00 0.00 55 1004.4
20260506021536 16 45 1.6 1.6 0.00 0.00 0.00 55 1004.4
20260506020513 16 30 1.6 1.6 0.00 0.00 0.00 55 1004.2
20260506015512 16 26 1.6 1.6 0.00 0.00 0.00 55 1004.4
20260506014508 16 11 1.6 1.6 0.00 0.00 0.00 55 1004.3
20260506013507 16 18 1.6 3.2 0.00 0.00 0.00 55 1004.5
20260506012505 16 0 1.6 1.6 0.00 0.00 0.00 55 1004.4
20260506011504 17 18 1.6 1.6 0.00 0.00 0.00 55 1004.4
20260506010000 17 26 1.6 1.6 0.00 0.00 0.00 54 1004.3
20260506004957 17 14 1.6 1.6 0.00 0.00 0.00 54 1004.5
20260506003956 17 18 1.6 1.6 0.00 0.00 0.00 54 1004.3
20260506002954 17 45 1.6 1.6 0.00 0.00 0.00 54 1004.3